When you browse on this site, cookies collect data to enhance your experience and personalize the content and advertising you see.
Visit our Privacy Policy to learn more. By continuing to use the site, you agree to this use of cookies and data.

Tiempo cada hora Groa de Murviedro

Hoy, 18 Septiembre, Viernes

Tiempo Temperatura Precipitaciones Viento Presión Humedad
00:00 +24°C° 0 mm 2 mps 761 mmHg 81%
01:00 +25°C° 0.1 mm 2 mps 761 mmHg 80%
02:00 +25°C° 0.1 mm 2 mps 761 mmHg 80%
03:00 +25°C° 0.1 mm 1 mps 761 mmHg 79%
04:00 +24°C° 0.6 mm 2 mps 761 mmHg 81%
05:00 +24°C° 0.6 mm 2 mps 761 mmHg 83%
06:00 +24°C° 0.6 mm 3 mps 761 mmHg 84%
07:00 +24°C° 0.3 mm 2 mps 761 mmHg 80%
08:00 +24°C° 0.3 mm 2 mps 761 mmHg 76%
09:00 +25°C° 0.3 mm 2 mps 761 mmHg 72%
10:00 +25°C° 0.3 mm 2 mps 761 mmHg 71%
11:00 +25°C° 0.3 mm 2 mps 762 mmHg 70%
12:00 +25°C° 0.3 mm 2 mps 762 mmHg 69%
13:00 +25°C° 1.5 mm 2 mps 761 mmHg 75%
14:00 +24°C° 1.5 mm 3 mps 761 mmHg 81%
15:00 +22°C° 1.5 mm 3 mps 761 mmHg 87%
16:00 +22°C° 0.2 mm 3 mps 761 mmHg 84%
17:00 +23°C° 0.2 mm 2 mps 760 mmHg 82%
18:00 +24°C° 0.2 mm 1 mps 760 mmHg 79%
19:00 +24°C° 0.2 mm 1 mps 761 mmHg 80%
20:00 +24°C° 0.2 mm 1 mps 761 mmHg 81%
21:00 +24°C° 0.2 mm 1 mps 761 mmHg 82%
22:00 +23°C° 0.1 mm 1 mps 761 mmHg 83%
23:00 +23°C° 0.1 mm 2 mps 761 mmHg 84%

Mañana, 19 Septiembre, Sábado

Tiempo Temperatura Precipitaciones Viento Presión Humedad
00:00 +21°C° 0.1 mm 2 mps 761 mmHg 85%
01:00 +21°C° 0 mm 2 mps 761 mmHg 84%
02:00 +21°C° 0 mm 2 mps 760 mmHg 83%
03:00 +21°C° 0 mm 3 mps 760 mmHg 82%
04:00 +21°C° 0 mm 3 mps 760 mmHg 81%
05:00 +20°C° 0 mm 3 mps 761 mmHg 79%
06:00 +20°C° 0 mm 4 mps 761 mmHg 78%
07:00 +22°C° 0 mm 5 mps 761 mmHg 69%
08:00 +24°C° 0 mm 6 mps 761 mmHg 59%
09:00 +27°C° 0 mm 7 mps 761 mmHg 50%
10:00 +28°C° 0 mm 7 mps 761 mmHg 46%
11:00 +29°C° 0 mm 7 mps 761 mmHg 42%
12:00 +30°C° 0 mm 7 mps 761 mmHg 39%
13:00 +32°C° 0 mm 7 mps 761 mmHg 38%
14:00 +32°C° 0 mm 7 mps 760 mmHg 37%
15:00 +32°C° 0 mm 7 mps 760 mmHg 36%
16:00 +30°C° 0 mm 6 mps 760 mmHg 38%
17:00 +29°C° 0 mm 6 mps 760 mmHg 41%
18:00 +28°C° 0 mm 5 mps 760 mmHg 44%
19:00 +27°C° 0 mm 5 mps 760 mmHg 47%
20:00 +26°C° 0 mm 5 mps 761 mmHg 49%
21:00 +25°C° 0 mm 4 mps 761 mmHg 52%
22:00 +25°C° 0 mm 4 mps 761 mmHg 54%
23:00 +23°C° 0 mm 4 mps 761 mmHg 55%

Pasado mañana, 20 Septiembre, Domingo

Tiempo Temperatura Precipitaciones Viento Presión Humedad
00:00 +24°C° 0 mm 3 mps 761 mmHg 57%
01:00 +22°C° 0 mm 3 mps 761 mmHg 58%
02:00 +22°C° 0 mm 4 mps 761 mmHg 59%
03:00 +22°C° 0 mm 4 mps 761 mmHg 60%
04:00 +21°C° 0 mm 4 mps 761 mmHg 61%
05:00 +21°C° 0 mm 4 mps 761 mmHg 62%
06:00 +21°C° 0 mm 4 mps 762 mmHg 63%
07:00 +23°C° 0 mm 4 mps 762 mmHg 56%
08:00 +26°C° 0 mm 4 mps 762 mmHg 49%
09:00 +28°C° 0 mm 4 mps 762 mmHg 42%
10:00 +30°C° 0 mm 3 mps 762 mmHg 39%
11:00 +31°C° 0 mm 3 mps 761 mmHg 35%
12:00 +32°C° 0 mm 2 mps 761 mmHg 32%
13:00 +33°C° 0 mm 3 mps 761 mmHg 32%
14:00 +33°C° 0 mm 3 mps 761 mmHg 33%
15:00 +33°C° 0 mm 4 mps 760 mmHg 33%
16:00 +30°C° 0 mm 3 mps 760 mmHg 39%
17:00 +29°C° 0 mm 3 mps 760 mmHg 45%
18:00 +27°C° 0 mm 2 mps 760 mmHg 50%
19:00 +27°C° 0 mm 2 mps 761 mmHg 51%
20:00 +26°C° 0 mm 2 mps 761 mmHg 51%
21:00 +26°C° 0 mm 2 mps 762 mmHg 51%
22:00 +26°C° 0 mm 2 mps 761 mmHg 51%
23:00 +25°C° 0 mm 2 mps 761 mmHg 52%

21 Septiembre, Lunes

Tiempo Temperatura Precipitaciones Viento Presión Humedad
00:00 +25°C° 0 mm 2 mps 761 mmHg 52%
01:00 +25°C° 0 mm 2 mps 761 mmHg 52%
02:00 +25°C° 0 mm 3 mps 761 mmHg 53%
03:00 +24°C° 0 mm 3 mps 761 mmHg 53%
04:00 +24°C° 0 mm 3 mps 761 mmHg 54%
05:00 +24°C° 0 mm 3 mps 761 mmHg 54%
06:00 +24°C° 0 mm 3 mps 761 mmHg 55%
07:00 +25°C° 0 mm 3 mps 761 mmHg 50%
08:00 +27°C° 0 mm 3 mps 761 mmHg 45%
09:00 +29°C° 0 mm 3 mps 761 mmHg 40%
10:00 +30°C° 0 mm 2 mps 761 mmHg 36%
11:00 +31°C° 0 mm 2 mps 761 mmHg 32%
12:00 +32°C° 0 mm 2 mps 760 mmHg 29%
13:00 +34°C° 0 mm 3 mps 760 mmHg 29%
14:00 +34°C° 0 mm 4 mps 760 mmHg 28%
15:00 +34°C° 0 mm 4 mps 759 mmHg 28%
16:00 +32°C° 0 mm 4 mps 759 mmHg 34%
17:00 +30°C° 0 mm 4 mps 759 mmHg 40%
18:00 +28°C° 0 mm 3 mps 759 mmHg 45%
19:00 +27°C° 0 mm 3 mps 759 mmHg 49%
20:00 +26°C° 0 mm 3 mps 760 mmHg 53%
21:00 +26°C° 0 mm 3 mps 760 mmHg 57%
22:00 +25°C° 0 mm 2 mps 760 mmHg 57%
23:00 +25°C° 0 mm 2 mps 760 mmHg 56%

22 Septiembre, Martes

Tiempo Temperatura Precipitaciones Viento Presión Humedad
00:00 +25°C° 0 mm 2 mps 759 mmHg 55%
01:00 +25°C° 0.2 mm 2 mps 759 mmHg 57%
02:00 +25°C° 0.2 mm 2 mps 759 mmHg 58%
03:00 +24°C° 0.2 mm 3 mps 759 mmHg 59%
04:00 +24°C° 0.4 mm 3 mps 759 mmHg 62%
05:00 +22°C° 0.4 mm 3 mps 759 mmHg 65%
06:00 +22°C° 0.4 mm 3 mps 759 mmHg 68%
07:00 +24°C° 0.2 mm 3 mps 759 mmHg 62%
08:00 +26°C° 0.2 mm 2 mps 760 mmHg 56%
09:00 +27°C° 0.2 mm 2 mps 760 mmHg 50%
10:00 +28°C° 0 mm 2 mps 759 mmHg 46%
11:00 +29°C° 0 mm 2 mps 759 mmHg 41%
12:00 +31°C° 0 mm 2 mps 759 mmHg 37%
13:00 +31°C° 0 mm 2 mps 759 mmHg 37%
14:00 +31°C° 0 mm 3 mps 758 mmHg 38%
15:00 +32°C° 0 mm 4 mps 758 mmHg 38%
16:00 +29°C° 0.1 mm 3 mps 758 mmHg 48%
17:00 +28°C° 0.1 mm 3 mps 758 mmHg 58%
18:00 +26°C° 0.1 mm 2 mps 758 mmHg 69%
19:00 +25°C° 0.3 mm 2 mps 759 mmHg 70%
20:00 +25°C° 0.3 mm 2 mps 759 mmHg 72%
21:00 +24°C° 0.3 mm 2 mps 760 mmHg 74%
22:00 +24°C° 0 mm 2 mps 760 mmHg 72%
23:00 +24°C° 0 mm 2 mps 760 mmHg 71%

23 Septiembre, Miércoles

Tiempo Temperatura Precipitaciones Viento Presión Humedad
00:00 +24°C° 0 mm 2 mps 760 mmHg 69%
01:00 +24°C° 0 mm 1 mps 759 mmHg 67%
02:00 +23°C° 0 mm 1 mps 759 mmHg 66%
03:00 +23°C° 0 mm 1 mps 759 mmHg 64%
04:00 +23°C° 0 mm 1 mps 759 mmHg 64%
05:00 +23°C° 0 mm 1 mps 759 mmHg 63%
06:00 +22°C° 0 mm 1 mps 759 mmHg 62%
07:00 +24°C° 0 mm 1 mps 759 mmHg 56%
08:00 +26°C° 0 mm 1 mps 759 mmHg 49%
09:00 +26°C° 0 mm 0 mps 759 mmHg 43%
10:00 +29°C° 0 mm 1 mps 759 mmHg 40%
11:00 +30°C° 0 mm 2 mps 759 mmHg 37%
12:00 +31°C° 0 mm 3 mps 758 mmHg 34%
13:00 +31°C° 0 mm 3 mps 758 mmHg 38%
14:00 +30°C° 0 mm 4 mps 758 mmHg 41%
15:00 +30°C° 0 mm 5 mps 757 mmHg 44%
16:00 +29°C° 0.1 mm 4 mps 757 mmHg 50%
17:00 +28°C° 0.1 mm 4 mps 757 mmHg 56%
18:00 +27°C° 0.1 mm 3 mps 757 mmHg 63%
19:00 +26°C° 0.2 mm 2 mps 757 mmHg 63%
20:00 +26°C° 0.2 mm 2 mps 758 mmHg 63%
21:00 +26°C° 0.2 mm 1 mps 758 mmHg 63%
22:00 +25°C° 0 mm 2 mps 758 mmHg 61%
23:00 +25°C° 0 mm 2 mps 758 mmHg 58%
Mostrar más